Torna al catalogo

STARLINK-36102

AttivoComunicazioniVLEO
NORAD 66849·PAYLOAD·🇺🇸 United States

Lanciato Dec 2, 2025 da Cape Canaveral Space Force Station

Loading…

Prossimi Passaggi (prossime 24 ore)

TLE

AggiornatoSource: CelesTrak SupGP

Epoca: Sep 15, 2026, 04:08 UTC

1 66849C 25281B   26258.17270833  .00054018  00000+0  19560-2 0  2583
2 66849  43.0033 353.5791 0001507 266.0567  40.8113 15.27560422    18

Traccia STARLINK-36102 in tempo reale con AllMySat

Download on the App Store